DLH024 EDDF-EDDH

Flight info

Callsign DLH024
Flight time 0h 43m
Altitude 35000
Route MARUN3W MARUN Y150 TOLGI DCT SAS/N0411F340 P605 NOLGO NOLGO6A
Aircraft A20N/M-SDE2E3FGHIRWXY/LB1

Departure

Time 2026-05-06 15:10
Airport Frankfurt Main Airport (EDDF)

Arrival

Time 2026-05-06 15:53
Airport Hamburg Helmut Schmidt Airport (EDDH)
Time Latitude Longitude Altitude Speed Heading
2026-05-06 14:54 50.04920 8.59185 359 ft 0 kts 340°
2026-05-06 14:58 50.04910 8.59191 361 ft 3 kts 340°
2026-05-06 14:58 50.04891 8.59202 361 ft 3 kts 340°
2026-05-06 14:58 50.04872 8.59213 360 ft 3 kts 331°
2026-05-06 14:59 50.04871 8.59213 360 ft 1 kts 330°
2026-05-06 14:59 50.04864 8.59219 360 ft 1 kts 340°
2026-05-06 14:59 50.04856 8.59223 361 ft 1 kts 340°
2026-05-06 14:59 50.04849 8.59227 360 ft 1 kts 340°
2026-05-06 15:00 50.04842 8.59231 358 ft 0 kts 340°
2026-05-06 15:03 50.04846 8.59228 363 ft 1 kts 333°
2026-05-06 15:03 50.04845 8.59212 362 ft 5 kts 266°
2026-05-06 15:04 50.04815 8.59135 363 ft 10 kts 245°
2026-05-06 15:04 50.04808 8.59108 362 ft 3 kts 249°
2026-05-06 15:04 50.04797 8.59064 363 ft 6 kts 249°
2026-05-06 15:04 50.04780 8.58992 362 ft 8 kts 249°
2026-05-06 15:05 50.04759 8.58905 364 ft 7 kts 251°
2026-05-06 15:05 50.04742 8.58830 363 ft 9 kts 250°
2026-05-06 15:05 50.04717 8.58731 362 ft 11 kts 245°
2026-05-06 15:05 50.04685 8.58615 363 ft 13 kts 246°
2026-05-06 15:06 50.04613 8.58578 361 ft 10 kts 157°
2026-05-06 15:06 50.04593 8.58589 363 ft 0 kts 161°
2026-05-06 15:08 50.04586 8.58593 362 ft 2 kts 161°
2026-05-06 15:08 50.04562 8.58606 364 ft 9 kts 160°
2026-05-06 15:08 50.04477 8.58553 364 ft 18 kts 243°
2026-05-06 15:08 50.04458 8.58469 364 ft 0 kts 249°
2026-05-06 15:09 50.04451 8.58442 366 ft 11 kts 249°
2026-05-06 15:10 50.04353 8.58025 362 ft 74 kts 249°
2026-05-06 15:10 50.04204 8.57400 363 ft 108 kts 250°
2026-05-06 15:10 50.03800 8.55701 675 ft 133 kts 251°
2026-05-06 15:10 50.03575 8.54785 1033 ft 133 kts 250°
2026-05-06 15:11 50.03238 8.53437 1567 ft 134 kts 250°
2026-05-06 15:11 50.02890 8.52087 2089 ft 135 kts 250°
2026-05-06 15:11 50.02523 8.50688 2500 ft 148 kts 244°
2026-05-06 15:11 50.01879 8.49315 2808 ft 167 kts 226°
2026-05-06 15:12 50.00883 8.48200 3172 ft 189 kts 208°
2026-05-06 15:12 49.99566 8.47658 3770 ft 204 kts 189°
2026-05-06 15:12 49.98139 8.47432 4605 ft 209 kts 188°
2026-05-06 15:12 49.96694 8.47195 5538 ft 208 kts 189°
2026-05-06 15:13 49.95285 8.46809 6457 ft 206 kts 197°
2026-05-06 15:13 49.93871 8.46147 7067 ft 221 kts 200°
2026-05-06 15:13 49.92357 8.45228 7580 ft 242 kts 212°
2026-05-06 15:13 49.91118 8.43472 8423 ft 251 kts 236°
2026-05-06 15:14 49.90507 8.40947 9471 ft 254 kts 263°
2026-05-06 15:14 49.90729 8.38232 10458 ft 259 kts 290°
2026-05-06 15:14 49.91748 8.35929 11433 ft 265 kts 316°
2026-05-06 15:14 49.93366 8.34433 12265 ft 280 kts 334°
2026-05-06 15:15 49.95263 8.33330 12812 ft 302 kts 339°
2026-05-06 15:15 49.97336 8.32271 13256 ft 325 kts 340°
2026-05-06 15:15 49.99569 8.31208 13684 ft 347 kts 345°
2026-05-06 15:15 50.01926 8.31040 14111 ft 366 kts
2026-05-06 15:16 50.04429 8.31918 14917 ft 371 kts 14°
2026-05-06 15:16 50.06940 8.33029 15712 ft 376 kts 15°
2026-05-06 15:16 50.09454 8.34198 16580 ft 379 kts 15°
2026-05-06 15:16 50.12010 8.35383 17292 ft 386 kts 15°
2026-05-06 15:17 50.14607 8.36569 18001 ft 392 kts 15°
2026-05-06 15:17 50.17207 8.37743 18694 ft 395 kts 15°
2026-05-06 15:17 50.19894 8.38950 19397 ft 398 kts 15°
2026-05-06 15:17 50.22531 8.40132 20103 ft 401 kts 15°
2026-05-06 15:18 50.25236 8.41345 20746 ft 406 kts 15°
2026-05-06 15:18 50.27960 8.42567 21436 ft 409 kts 15°
2026-05-06 15:18 50.30709 8.43802 22101 ft 413 kts 15°
2026-05-06 15:18 50.33478 8.45049 22745 ft 416 kts 15°
2026-05-06 15:19 50.36293 8.46320 23372 ft 421 kts 14°
2026-05-06 15:19 50.39127 8.47599 23883 ft 425 kts 14°
2026-05-06 15:19 50.41981 8.48886 24410 ft 429 kts 14°
2026-05-06 15:19 50.44865 8.50189 24903 ft 433 kts 14°
2026-05-06 15:20 50.47775 8.51506 25395 ft 437 kts 14°
2026-05-06 15:20 50.50712 8.52838 25880 ft 441 kts 15°
2026-05-06 15:20 50.53633 8.54165 26336 ft 445 kts 15°
2026-05-06 15:20 50.56618 8.55522 26816 ft 448 kts 15°
2026-05-06 15:21 50.59649 8.56905 27087 ft 457 kts 14°
2026-05-06 15:21 50.62707 8.58299 27568 ft 459 kts 14°
2026-05-06 15:21 50.65789 8.59705 28021 ft 462 kts 14°
2026-05-06 15:21 50.68885 8.61119 28434 ft 466 kts 15°
2026-05-06 15:22 50.72007 8.62548 28836 ft 469 kts 15°
2026-05-06 15:22 50.75169 8.63998 29228 ft 472 kts 15°
2026-05-06 15:22 50.78299 8.65481 29620 ft 475 kts 19°
2026-05-06 15:22 50.81313 8.67740 29982 ft 479 kts 32°
2026-05-06 15:23 50.84013 8.70795 30325 ft 481 kts 41°
2026-05-06 15:23 50.86552 8.74268 30672 ft 484 kts 41°
2026-05-06 15:23 50.89126 8.77773 31046 ft 485 kts 41°
2026-05-06 15:23 50.91659 8.81250 31502 ft 485 kts 41°
2026-05-06 15:24 50.94197 8.84767 31945 ft 485 kts 42°
2026-05-06 15:24 50.96738 8.88316 32410 ft 484 kts 42°
2026-05-06 15:24 50.99268 8.91865 32868 ft 484 kts 42°
2026-05-06 15:24 51.01760 8.95373 33372 ft 481 kts 41°
2026-05-06 15:25 51.04265 8.98902 33822 ft 480 kts 41°
2026-05-06 15:25 51.06772 9.02439 34138 ft 480 kts 41°
2026-05-06 15:25 51.09244 9.05933 34309 ft 479 kts 41°
2026-05-06 15:25 51.11744 9.09471 34472 ft 478 kts 42°
2026-05-06 15:26 51.14239 9.13006 34633 ft 479 kts 42°
2026-05-06 15:26 51.16687 9.16480 34743 ft 479 kts 42°
2026-05-06 15:26 51.19193 9.20042 34771 ft 478 kts 42°
2026-05-06 15:27 51.24159 9.27118 34770 ft 480 kts 42°
2026-05-06 15:27 51.29486 9.33286 34782 ft 478 kts 26°
2026-05-06 15:28 51.35746 9.36678 34790 ft 476 kts 10°
2026-05-06 15:28 51.42202 9.38920 34804 ft 476 kts 11°
2026-05-06 15:29 51.48653 9.41188 34809 ft 476 kts 10°
2026-05-06 15:29 51.55148 9.43470 34804 ft 476 kts 10°
2026-05-06 15:30 51.61600 9.45741 34803 ft 476 kts 10°
2026-05-06 15:30 51.68069 9.48023 34810 ft 476 kts 10°
2026-05-06 15:31 51.74532 9.50311 34806 ft 475 kts 10°
2026-05-06 15:31 51.80964 9.52705 34803 ft 475 kts 15°
2026-05-06 15:32 51.87063 9.56735 34798 ft 477 kts 26°
2026-05-06 15:32 51.90039 9.59219 34803 ft 477 kts 26°
2026-05-06 15:32 51.95947 9.64075 34797 ft 476 kts 26°
2026-05-06 15:33 52.01842 9.68955 34800 ft 476 kts 26°
2026-05-06 15:33 52.04765 9.71387 34663 ft 478 kts 26°
2026-05-06 15:33 52.07744 9.73872 34423 ft 477 kts 26°
2026-05-06 15:34 52.10664 9.76313 34191 ft 476 kts 26°
2026-05-06 15:34 52.13623 9.78789 33968 ft 475 kts 26°
2026-05-06 15:34 52.16574 9.81262 33728 ft 474 kts 26°
2026-05-06 15:34 52.19511 9.83727 33451 ft 474 kts 26°
2026-05-06 15:35 52.22418 9.86171 33174 ft 473 kts 26°
2026-05-06 15:35 52.25424 9.88367 32905 ft 472 kts 19°
2026-05-06 15:35 52.28527 9.89917 32625 ft 470 kts 13°
2026-05-06 15:35 52.31701 9.91290 31995 ft 472 kts 13°
2026-05-06 15:36 52.34878 9.92692 31203 ft 473 kts 14°
2026-05-06 15:36 52.38065 9.94104 30355 ft 472 kts 14°
2026-05-06 15:36 52.41175 9.95483 29599 ft 460 kts 14°
2026-05-06 15:36 52.44240 9.96842 29124 ft 449 kts 14°
2026-05-06 15:37 52.47243 9.98173 28558 ft 442 kts 14°
2026-05-06 15:37 52.50172 9.99472 27998 ft 436 kts 14°
2026-05-06 15:37 52.53047 10.00747 27489 ft 429 kts 14°
2026-05-06 15:37 52.55934 10.02029 26933 ft 425 kts 14°
2026-05-06 15:38 52.58784 10.03298 26417 ft 420 kts 14°
2026-05-06 15:38 52.61594 10.04548 25812 ft 417 kts 15°
2026-05-06 15:38 52.64397 10.05800 25337 ft 411 kts 15°
2026-05-06 15:38 52.67106 10.07013 24768 ft 408 kts 15°
2026-05-06 15:39 52.69849 10.08245 24289 ft 404 kts 15°
2026-05-06 15:39 52.72531 10.09449 23715 ft 402 kts 14°
2026-05-06 15:39 52.75234 10.10663 23203 ft 398 kts 14°
2026-05-06 15:39 52.77940 10.11571 22639 ft 393 kts
2026-05-06 15:40 52.80657 10.11879 22150 ft 387 kts 359°
2026-05-06 15:40 52.83319 10.11932 21636 ft 383 kts
2026-05-06 15:40 52.85972 10.12018 21152 ft 390 kts
2026-05-06 15:40 52.88584 10.12112 20801 ft 405 kts
2026-05-06 15:41 52.91420 10.12214 20557 ft 404 kts
2026-05-06 15:41 52.94180 10.12310 20191 ft 400 kts
2026-05-06 15:41 52.96937 10.12404 19662 ft 396 kts
2026-05-06 15:41 52.99716 10.12497 19042 ft 395 kts
2026-05-06 15:42 53.02439 10.12587 18479 ft 392 kts 360°
2026-05-06 15:42 53.05171 10.12664 17884 ft 389 kts 358°
2026-05-06 15:42 53.07807 10.12100 17273 ft 382 kts 341°
2026-05-06 15:42 53.10185 10.10192 16637 ft 375 kts 325°
2026-05-06 15:43 53.12323 10.07820 16149 ft 366 kts 324°
2026-05-06 15:43 53.14386 10.05522 15870 ft 347 kts 324°
2026-05-06 15:43 53.16341 10.03340 15622 ft 329 kts 323°
2026-05-06 15:43 53.18203 10.01260 15364 ft 313 kts 324°
2026-05-06 15:44 53.19968 9.99309 15109 ft 299 kts 324°
2026-05-06 15:44 53.21673 9.97429 14857 ft 285 kts 324°
2026-05-06 15:44 53.23299 9.95649 14610 ft 273 kts 324°
2026-05-06 15:44 53.24855 9.93947 14209 ft 268 kts 324°
2026-05-06 15:45 53.26413 9.92238 13731 ft 266 kts 324°
2026-05-06 15:45 53.27944 9.90549 13187 ft 265 kts 324°
2026-05-06 15:45 53.29479 9.88844 12674 ft 263 kts 324°
2026-05-06 15:45 53.30964 9.87173 12222 ft 259 kts 324°
2026-05-06 15:46 53.32488 9.85437 11447 ft 269 kts 324°
2026-05-06 15:46 53.34031 9.83660 10802 ft 273 kts 324°
2026-05-06 15:46 53.35543 9.81773 10205 ft 274 kts 324°
2026-05-06 15:46 53.37057 9.79811 9650 ft 274 kts 324°
2026-05-06 15:47 53.38545 9.77841 9137 ft 270 kts 323°
2026-05-06 15:47 53.39996 9.75924 8657 ft 266 kts 323°
2026-05-06 15:47 53.41455 9.74009 8085 ft 265 kts 324°
2026-05-06 15:47 53.42914 9.72073 7349 ft 272 kts 323°
2026-05-06 15:48 53.44415 9.70092 6667 ft 276 kts 324°
2026-05-06 15:48 53.46013 9.68310 5961 ft 274 kts 341°
2026-05-06 15:48 53.47871 9.67795 5235 ft 269 kts
2026-05-06 15:48 53.49550 9.68931 4514 ft 262 kts 41°
2026-05-06 15:49 53.50714 9.71283 3804 ft 262 kts 56°
2026-05-06 15:49 53.51703 9.73750 3316 ft 254 kts 56°
2026-05-06 15:49 53.52663 9.76135 3113 ft 236 kts 56°
2026-05-06 15:49 53.53570 9.78344 2835 ft 225 kts 55°
2026-05-06 15:50 53.54449 9.80441 2531 ft 212 kts 54°
2026-05-06 15:50 53.55260 9.82329 2249 ft 188 kts 54°
2026-05-06 15:50 53.55954 9.84026 1948 ft 165 kts 57°
2026-05-06 15:50 53.56578 9.85622 1731 ft 160 kts 54°
2026-05-06 15:51 53.57240 9.87087 1539 ft 155 kts 51°
2026-05-06 15:51 53.57947 9.88518 1404 ft 163 kts 50°
2026-05-06 15:51 53.58653 9.89910 1165 ft 148 kts 50°
2026-05-06 15:51 53.59275 9.91190 937 ft 136 kts 50°
2026-05-06 15:52 53.59842 9.92361 742 ft 126 kts 51°
2026-05-06 15:52 53.60401 9.93488 564 ft 127 kts 50°
2026-05-06 15:52 53.60979 9.94644 401 ft 130 kts 49°
2026-05-06 15:52 53.61357 9.95407 290 ft 129 kts 51°
2026-05-06 15:53 53.62132 9.96992 53 ft 131 kts 50°
2026-05-06 15:53 53.62491 9.97722 46 ft 109 kts 50°
2026-05-06 15:53 53.62902 9.98551 49 ft 77 kts 50°
2026-05-06 15:53 53.63186 9.99123 51 ft 43 kts 50°
2026-05-06 15:54 53.63291 9.99446 50 ft 23 kts 84°
2026-05-06 15:54 53.63283 9.99601 49 ft 6 kts 98°
2026-05-06 15:54 53.63280 9.99628 50 ft 0 kts 98°
2026-05-06 15:55 53.63277 9.99668 50 ft 10 kts 98°
2026-05-06 15:56 53.63300 9.99806 50 ft 14 kts 50°
2026-05-06 15:56 53.63353 9.99914 50 ft 10 kts 50°
2026-05-06 15:56 53.63389 9.99986 50 ft 5 kts 50°
2026-05-06 15:56 53.63392 9.99992 50 ft 2 kts 50°
2026-05-06 15:57 53.63424 10.00057 50 ft 11 kts 55°
2026-05-06 15:57 53.63395 10.00160 50 ft 13 kts 168°
2026-05-06 15:57 53.63301 10.00171 49 ft 12 kts 175°
2026-05-06 15:57 53.63228 10.00179 49 ft 10 kts 175°
2026-05-06 15:58 53.63203 10.00228 50 ft 4 kts 83°
2026-05-06 15:58 53.63205 10.00277 50 ft 4 kts 86°
2026-05-06 15:58 53.63207 10.00343 50 ft 8 kts 88°
2026-05-06 15:58 53.63207 10.00358 50 ft 0 kts 87°